(173810) = 2001 SW256 = 2001 UN126

Discovered at Socorro on 2001-09-19 by LINEAR.

Orbit

Orbit type: Main Belt

Note: WebGL enabled browser required.

epoch2023-02-25.0
epoch JD2460000.5
perihelion date2021-04-13.21666
perihelion JD2459317.71666
argument of perihelion (°)292.93392
ascending node (°)97.83242
inclination (°)3.03961
eccentricity0.0888249
perihelion distance (AU)2.6202158
Tisserand w.r.t. Jupiter3.3
ΔV w.r.t. Earth (km/sec)10.2
semimajor axis (AU)2.8756446
mean anomaly (°)138.00154
mean daily motion (°/day)0.20211620
aphelion distance (AU)3.131
period (years)4.88
P-vector [x]0.85797693
P-vector [y]0.48859052
P-vector [z]0.15860293
Q-vector [x]-0.51099513
Q-vector [y]0.78020550
Q-vector [z]0.36078159
absolute magnitude15.99
phase slope0.15
uncertainty0
referenceMPO 745323
observations used508
oppositions17
arc length (days)7948
first opposition used2001
last opposition used2023
residual rms (arc-secs)0.76
perturbers coarse indicatorM-v
perturbers precise indicator003Ek
first observation date used2001-09-19.0
last observation date used2023-06-24.0
computer nameMPCLINUX
JD of orbit computation2456847.641898
perihelion JD uncertainty (days)1.9494E-04
argument of perihelion uncertainty (°)1.3116E-04
ascending node uncertainty (°)1.2619E-04
inclination uncertainty (°)6.1286E-06
eccentricity uncertainty 7.4081E-08
perihelion distance uncertainty (AU)2.0955E-07
Minimum Orbit Intersection Distances (in AU)
for orbit epoch: 2460000.5, reference: E2023-MD7
Mercury2.2851
Venus1.89597
Earth1.62587
Mars1.14881
Jupiter2.2574
Saturn6.272
Uranus15.3743
Neptune27.2299

Observations

534 total observations over interval: 2001 09 19.40989 – 2023 06 24.202892
These data are available for download (format description).

Date (UT) J2000 RA J2000 Dec Magn Location Ref
2001 09 19.40989 02 34 15.30 +10 38 28.8 20.4   704 – Lincoln Laboratory ETS, New Mexico MPS 36809
2001 09 19.42414 02 34 15.04 +10 38 26.2 20.7   704 – Lincoln Laboratory ETS, New Mexico MPS 36809
2001 09 19.43845 02 34 14.93 +10 38 24.1 20.6   704 – Lincoln Laboratory ETS, New Mexico MPS 36809
2001 09 19.45272 02 34 14.66 +10 38 22.8 20.4   704 – Lincoln Laboratory ETS, New Mexico MPS 36809
2001 09 21.41424 02 33 45.24 +10 34 09.5 19.5   704 – Lincoln Laboratory ETS, New Mexico MPS 36809
2001 09 21.42848 02 33 45.01 +10 34 07.4 19.9   704 – Lincoln Laboratory ETS, New Mexico MPS 36809
2001 09 21.44274 02 33 44.70 +10 34 05.5 19.9   704 – Lincoln Laboratory ETS, New Mexico MPS 36809
2001 09 21.45700 02 33 44.50 +10 34 03.4 19.8   704 – Lincoln Laboratory ETS, New Mexico MPS 36809
2001 09 26.33926 02 32 05.36 +10 21 52.2 19.8   704 – Lincoln Laboratory ETS, New Mexico MPS 49502
2001 09 26.35387 02 32 05.02 +10 21 49.7 19.8   704 – Lincoln Laboratory ETS, New Mexico MPS 49502
2001 09 26.36846 02 32 04.61 +10 21 47.6 20.2   704 – Lincoln Laboratory ETS, New Mexico MPS 49502
2001 10 17.25222 02 19 06.68 +09 08 55.1 19.3   704 – Lincoln Laboratory ETS, New Mexico MPS 41206
2001 10 17.26823 02 19 05.87 +09 08 51.1 19.8   704 – Lincoln Laboratory ETS, New Mexico MPS 41206
2001 10 17.28422 02 19 05.12 +09 08 47.3 19.3   704 – Lincoln Laboratory ETS, New Mexico MPS 41206
2001 10 17.30020 02 19 04.34 +09 08 43.1 20.1   704 – Lincoln Laboratory ETS, New Mexico MPS 41206
2001 10 18.24969 02 18 18.87 +09 04 57.1 19.5   704 – Lincoln Laboratory ETS, New Mexico MPS 40665
2001 10 18.26560 02 18 18.00 +09 04 53.1 19.6   704 – Lincoln Laboratory ETS, New Mexico MPS 40665
2001 10 18.28152 02 18 17.09 +09 04 49.0 19.6   704 – Lincoln Laboratory ETS, New Mexico MPS 40665
2001 10 18.29741 02 18 16.42 +09 04 46.0 19.5   704 – Lincoln Laboratory ETS, New Mexico MPS 40665
2001 10 18.36115 02 18 13.28 +09 04 30.6 19.9   644 – Palomar Mountain/NEAT MPS 44020
2001 10 18.38442 02 18 12.12 +09 04 25.2 19.9   644 – Palomar Mountain/NEAT MPS 44020
2001 10 18.40559 02 18 11.06 +09 04 20.0 19.5   644 – Palomar Mountain/NEAT MPS 44020
2001 10 20.34394 02 16 36.43 +08 56 35.0 18.5   704 – Lincoln Laboratory ETS, New Mexico MPS 40665
2001 10 20.36028 02 16 35.61 +08 56 30.4 18.9   704 – Lincoln Laboratory ETS, New Mexico MPS 40665
2001 10 20.37663 02 16 34.74 +08 56 27.6 18.9   704 – Lincoln Laboratory ETS, New Mexico MPS 40665
2001 10 20.40953 02 16 33.10 +08 56 20.2 19.1   704 – Lincoln Laboratory ETS, New Mexico MPS 40665
2001 10 23.33707 02 14 07.13 +08 44 38.6 19.4   704 – Lincoln Laboratory ETS, New Mexico MPS 40665
2001 10 23.35346 02 14 06.30 +08 44 34.4 19.4   704 – Lincoln Laboratory ETS, New Mexico MPS 40665
2001 10 23.36985 02 14 05.40 +08 44 30.5 19.4   704 – Lincoln Laboratory ETS, New Mexico MPS 40665
2001 10 23.38625 02 14 04.56 +08 44 26.6 18.9   704 – Lincoln Laboratory ETS, New Mexico MPS 40665
2001 10 23.40266 02 14 03.70 +08 44 22.3 19.1   704 – Lincoln Laboratory ETS, New Mexico MPS 40665
2001 10 24.25475 02 13 21.00 +08 41 02.1 18.6   704 – Lincoln Laboratory ETS, New Mexico MPS 40665
2001 10 24.27128 02 13 20.13 +08 40 58.3 19.0   704 – Lincoln Laboratory ETS, New Mexico MPS 40665
2001 10 24.28783 02 13 19.33 +08 40 54.9 19.4   704 – Lincoln Laboratory ETS, New Mexico MPS 40665
2001 10 24.30437 02 13 18.39 +08 40 50.5 19.0   704 – Lincoln Laboratory ETS, New Mexico MPS 40665
2001 10 24.32092 02 13 17.53 +08 40 46.9 19.2   704 – Lincoln Laboratory ETS, New Mexico MPS 40665
2001 10 25.23662 02 12 31.27 +08 37 10.9 18.8   704 – Lincoln Laboratory ETS, New Mexico MPS 40665
2001 10 25.25327 02 12 30.55 +08 37 09.8 19.6   704 – Lincoln Laboratory ETS, New Mexico MPS 40665
2001 10 25.27013 02 12 29.49 +08 37 03.9 19.5   704 – Lincoln Laboratory ETS, New Mexico MPS 40665
2001 10 25.30345 02 12 27.81 +08 36 56.0 19.5   704 – Lincoln Laboratory ETS, New Mexico MPS 40665
2001 11 20.16554 01 52 52.46 +07 20 22.3 20.1   704 – Lincoln Laboratory ETS, New Mexico MPS 44020
2001 11 20.18023 01 52 51.91 +07 20 20.6 20.1   704 – Lincoln Laboratory ETS, New Mexico MPS 44020
2001 11 20.19492 01 52 51.38 +07 20 19.5 19.9   704 – Lincoln Laboratory ETS, New Mexico MPS 44020
2001 11 20.20961 01 52 50.80 +07 20 18.3 19.9   704 – Lincoln Laboratory ETS, New Mexico MPS 44020
2001 11 21.15024 01 52 19.64 +07 18 57.5 19.7   704 – Lincoln Laboratory ETS, New Mexico MPS 49502
2001 11 21.16486 01 52 19.07 +07 18 56.3 19.6   704 – Lincoln Laboratory ETS, New Mexico MPS 49502
2001 11 21.17948 01 52 18.60 +07 18 54.5 20.0   704 – Lincoln Laboratory ETS, New Mexico MPS 49502
2001 11 21.19411 01 52 18.07 +07 18 53.9 20.1   704 – Lincoln Laboratory ETS, New Mexico MPS 49502
2001 11 21.20874 01 52 17.59 +07 18 53.2 19.5   704 – Lincoln Laboratory ETS, New Mexico MPS 49502
2003 02 02.30952 09 29 36.49 +17 51 05.8 20.1   644 – Palomar Mountain/NEAT MPS 136485
2003 02 02.38629 09 29 32.47 +17 51 28.7 20.5   644 – Palomar Mountain/NEAT MPS 136485
2003 02 02.44901 09 29 29.13 +17 51 46.9 20.1   644 – Palomar Mountain/NEAT MPS 136485
2005 06 17.34784 20 25 04.69 -20 18 19.1 20.1 V G96 – Mt. Lemmon Survey MPS 136485
2005 06 17.35329 20 25 04.62 -20 18 19.6 20.0 V G96 – Mt. Lemmon Survey MPS 136485
2005 06 17.35870 20 25 04.44 -20 18 20.5 20.4 V G96 – Mt. Lemmon Survey MPS 136485
2005 06 17.36413 20 25 04.33 -20 18 21.6 20.8 V G96 – Mt. Lemmon Survey MPS 136485
2006 10 15.79010 03 27 58.13 +14 53 06.0 21.0 R D35 – Lulin Observatory MPS 182771
2006 10 15.80443 03 27 57.64 +14 53 04.1 20.0 R D35 – Lulin Observatory MPS 182771
2006 10 15.82065 03 27 57.10 +14 53 01.7 20.5 R D35 – Lulin Observatory MPS 182771
2006 10 16.32727 03 27 40.64 +14 51 53.4 19.6 V 703 – Catalina Sky Survey MPS 182771
2006 10 16.33429 03 27 40.46 +14 51 52.3 19.7 V 703 – Catalina Sky Survey MPS 182771
2006 10 16.34133 03 27 40.24 +14 51 50.4 20.9 V 703 – Catalina Sky Survey MPS 182771
2006 10 16.34838 03 27 39.92 +14 51 50.8 19.7 V 703 – Catalina Sky Survey MPS 182771
2006 11 02.39505 03 15 20.23 +14 07 04.5 19.3 V 703 – Catalina Sky Survey MPS 185275
2006 11 02.40051 03 15 20.01 +14 07 03.4 18.9 V 703 – Catalina Sky Survey MPS 185275
2006 11 02.40598 03 15 19.62 +14 07 01.4 19.1 V 703 – Catalina Sky Survey MPS 185275
2006 11 02.41146 03 15 19.36 +14 07 00.8 19.1 V 703 – Catalina Sky Survey MPS 185275
2006 11 08.40443 03 10 05.82 +13 49 52.2 19.4 R 644 – Palomar Mountain/NEAT MPS 190320
2006 11 08.42611 03 10 04.63 +13 49 48.4 19.3 R 644 – Palomar Mountain/NEAT MPS 190320
2006 11 08.44652 03 10 03.52 +13 49 44.8 19.3 R 644 – Palomar Mountain/NEAT MPS 190320
2006 11 09.32228 03 09 17.03 +13 47 16.2 19.2 R 644 – Palomar Mountain/NEAT MPS 190320
2006 11 09.34440 03 09 15.81 +13 47 12.7 19.2 R 644 – Palomar Mountain/NEAT MPS 190320
2006 11 09.36515 03 09 14.67 +13 47 09.0 19.1 R 644 – Palomar Mountain/NEAT MPS 190320
2006 11 10.22414 03 08 28.99 +13 44 43.9   291 – LPL/Spacewatch II MPS 186808
2006 11 10.22824 03 08 28.77 +13 44 43.2   291 – LPL/Spacewatch II MPS 186808
2006 11 10.23203 03 08 28.56 +13 44 42.5   291 – LPL/Spacewatch II MPS 186808
2006 11 10.32613 03 08 23.40 +13 44 26.3 19.2 R 644 – Palomar Mountain/NEAT MPS 188414
2006 11 10.34680 03 08 22.22 +13 44 22.6 19.1 R 644 – Palomar Mountain/NEAT MPS 188414
2006 11 10.36751 03 08 21.08 +13 44 19.5 19.3 R 644 – Palomar Mountain/NEAT MPS 188414
2006 11 11.36439 03 07 27.73 +13 41 33.2 19.1 V 703 – Catalina Sky Survey MPS 186808
2006 11 11.37224 03 07 27.30 +13 41 32.9 19.0 V 703 – Catalina Sky Survey MPS 186808
2006 11 11.38008 03 07 26.86 +13 41 30.8 18.8 V 703 – Catalina Sky Survey MPS 186808
2006 11 11.38792 03 07 26.47 +13 41 29.4 19.1 V 703 – Catalina Sky Survey MPS 186808
2006 11 15.33413 03 03 56.41 +13 30 46.1 19.0 V G96 – Mt. Lemmon Survey MPS 186808
2006 11 15.33971 03 03 56.12 +13 30 45.1 19.1 V G96 – Mt. Lemmon Survey MPS 186808
2006 11 15.34542 03 03 55.80 +13 30 44.1 19.1 V G96 – Mt. Lemmon Survey MPS 186808
2006 11 15.35098 03 03 55.51 +13 30 43.4 19.0 V G96 – Mt. Lemmon Survey MPS 186808
2006 11 17.30160 03 02 13.23 +13 25 41.5 19.4 V 703 – Catalina Sky Survey MPS 188414
2006 11 17.30857 03 02 12.80 +13 25 39.1 19.2 V 703 – Catalina Sky Survey MPS 188414
